Regional Weather Roundup
Issued by NWS

Home | Current Version | Previous Version | Graphics & Text | Print | Product List | Glossary On
Versions: 1 2 3 4 5 6 7 8 9 10 11 12 13 14 15 16 17 18 19 20 21 22 23 24 25 26 27 28 29 30 31 32 33 34 35 36 37 38 39 40 41 42 43 44 45 46 47 48 49 50
000
ASUS43 KOAX 010902
RWRNE

WEATHER ROUNDUP FOR NEBRASKA
NATIONAL WEATHER SERVICE OMAHA NE
400 AM CDT FRI AUG 01 2014

NOTES: SATELLITE DATA IS BEING USED TO AUGMENT CLOUD COVER ABOVE
       12000 FEET.
       "FAIR" INDICATES FEW OR NO CLOUDS BELOW 12,000 FEET WITH NO
       SIGNIFICANT WEATHER AND/OR OBSTRUCTIONS TO VISIBILITY.

  * THESE STATIONS DO NOT REPORT WEATHER SUCH AS RAIN...SNOW OR FOG.

NEZ001>004-019>022-054>056-011000-
NEBRASKA PANHANDLE

CITY           SKY/WX    TMP DP  RH WIND       PRES   REMARKS
SCOTTSBLUFF    CLEAR     57  49  74 W6        30.19S
ALLIANCE       CLEAR     53  45  74 CALM      30.18R
CHADRON        CLEAR     57  47  69 W13       30.13F
KIMBALL        CLEAR     56  50  81 CALM      30.23S
SIDNEY         CLEAR     56  45  66 SE3       30.21S
$$

NEZ057>060-069>072-079>082-011000-
SOUTHWEST NEBRASKA

CITY           SKY/WX    TMP DP  RH WIND       PRES   REMARKS
NORTH PLATTE   CLEAR     54  51  90 CALM      30.12S
IMPERIAL       CLEAR     61  53  75 W6        30.15S
LEXINGTON      CLEAR     56  55  94 NW6       30.10R
MCCOOK         CLEAR     59  55  87 W7        30.12R
OGALLALA       CLEAR     52  49  90 SW3       30.15S
$$

NEZ005>010-023>029-035>040-094-011000-
NORTH CENTRAL NEBRASKA

CITY           SKY/WX    TMP DP  RH WIND       PRES   REMARKS
VALENTINE      CLEAR     60  57  89 E5        30.10F
AINSWORTH      CLEAR     59  58  99 S3        30.10F
BROKEN BOW     CLEAR     56  54  93 CALM      30.09S
O`NEILL        FOG       61  61 100 CALM      30.09S VSB 1/2
ORD            CLEAR     56  55  97 CALM      30.07S
$$

NEZ041-046>049-061>064-073>077-083>087-011000-
SOUTH CENTRAL NEBRASKA

CITY           SKY/WX    TMP DP  RH WIND       PRES   REMARKS
GRAND ISLAND   CLEAR     59  57  93 N7        30.06R
AURORA         CLEAR     59  59 100 N5        30.05R FOG
HASTINGS       CLEAR     60  56  86 NW3       30.05S
HEBRON         CLEAR     61  55  80 CALM      30.02F
HOLDREGE       CLEAR     59  57  94 NW5       30.08R FOG
KEARNEY *      CLEAR     61  57  88 NW7       30.07S
YORK           CLEAR     57  57 100 NE3       30.04R
$$

NEZ011>018-030>034-042>045-011000-
NORTHEAST NEBRASKA

CITY           SKY/WX    TMP DP  RH WIND       PRES   REMARKS
NORFOLK        CLEAR     60  57  89 CALM      30.06S
ALBION         CLEAR     57  54  92 CALM      30.08R
BLAIR          MOCLDY    64  60  88 E6        30.05S
COLUMBUS *     CLEAR     61  55  82 NE6       30.05S
FREMONT        CLEAR     66  63  88 E5        30.05S
TEKAMAH        MOCLDY    63  59  87 CALM      30.05F
WAYNE          FOG       55  54  97 CALM      30.07S VSB 1/2
$$

NEZ050>053-065>068-078-088>093-011000-
SOUTHEAST NEBRASKA

CITY           SKY/WX    TMP DP  RH WIND       PRES   REMARKS
LINCOLN        CLEAR     68  58  70 SE10      30.03F
OMAHA EPPLEY   MOCLDY    68  60  75 E14       30.05F
BEATRICE       MOCLDY    66  59  78 SE7       30.03S
FALLS CITY     CLOUDY    66  61  84 S9        30.05F
NEBRASKA CITY  LGT RAIN  64  64 100 E7        30.07R
PLATTSMOUTH    CLOUDY    65  62  90 E9        30.05F
$$

NEZ044-045-051>053-067-011000-
OMAHA AREA

CITY           SKY/WX    TMP DP  RH WIND       PRES   REMARKS
OMAHA EPPLEY   MOCLDY    68  60  75 E14       30.05F
BLAIR          MOCLDY    64  60  88 E6        30.05S
FREMONT        CLEAR     66  63  88 E5        30.05S
MILLARD        MOCLDY    68  61  78 SE8       30.04F
OFFUTT AFB     MOCLDY    66  66  99 E8        30.04F
PLATTSMOUTH    CLOUDY    65  62  90 E9        30.05F
WAHOO          FAIR      63  60  88 E5        30.04S
$$



USA.gov is the U.S. government's official web portal to all federal, state and local government web resources and services.